Regional Weather Roundup
Issued by NWS

Home | Current Version | Previous Version | Graphics & Text | Print | Product List | Glossary On
Versions: 1 2 3 4 5 6 7 8 9 10 11 12 13 14 15 16 17 18 19 20 21 22 23 24 25 26 27 28
000
ASUS45 KBOI 201210
RWRID

IDAHO REGIONAL WEATHER ROUNDUP
NATIONAL WEATHER SERVICE BOISE ID
600 AM MDT FRI OCT 20 2017

NOTE: "FAIR" INDICATES FEW OR NO CLOUDS BELOW 12000 FEET
WITH NO SIGNIFICANT WEATHER AND/OR OBSTRUCTIONS TO VISIBILITY

IDZ012-014-201300-
SOUTHWEST IDAHO


CITY           SKY/WX    TMP DP  RH WIND       PRES   REMARKS
BOISE          CLOUDY    46  38  73 NW18G25   29.62R
CALDWELL       NOT AVBL
MOUNTAIN HOME  MOCLDY    49  37  62 NW22G37   29.57R
$$

IDZ016-017-201300-
SOUTHCENTRAL IDAHO


CITY           SKY/WX    TMP DP  RH WIND       PRES   REMARKS
BURLEY         MOCLDY    56  24  29 W15G23    29.51R
JEROME         MOCLDY    54  25  32 SW8       29.53F
TWIN FALLS     MOCLDY    53  23  31 S10       29.52F
$$

IDZ019>023-201300-
SOUTHEAST IDAHO


CITY           SKY/WX    TMP DP  RH WIND       PRES   REMARKS
IDAHO FALLS    MOCLDY    55  34  45 SW13      29.54F
POCATELLO      CLOUDY    61  30  31 S24G35    29.50F
REXBURG        PTCLDY    35  24  64 NE3       29.55F
$$

IDZ006-010-011-018-031-032-201300-
CENTRAL IDAHO MOUNTAINS


CITY           SKY/WX    TMP DP  RH WIND       PRES   REMARKS
MCCALL         LGT RAIN  39  37  92 VRB6      29.50R WCI  35
HAILEY         CLOUDY    39  23  52 NW6       29.56F WCI  35
STANLEY          N/A     50  26  39 SE10G23   29.52F
SALMON         PTCLDY    31  23  72 SE5       29.40F WCI  26
CHALLIS        MOCLDY    38  19  46 CALM      29.45F
$$

IDZ002-004-006-007-026-201300-
NORTHERN IDAHO


CITY           SKY/WX    TMP DP  RH WIND       PRES   REMARKS
LEWISTON       LGT RAIN  47  44  90 S5        29.58S
LOWELL           N/A     44  42  93 VRB3      29.62R
COEUR D`ALENE  LGT RAIN  44  39  82 SW15G25   29.52R
MULLAN PASS    SNOW      30  29  96 CALM      29.48S VSB 1/2
$$




USA.gov is the U.S. government's official web portal to all federal, state and local government web resources and services.